"Pseudo-MPEC" for C9H1TZ2

Created 2023 Sep 20 10:22:11 UT using Find_Orb

Click here for an explanation of pseudo-MPECs

 
 Astrometry: 
     C9H1TZ2*1C2023 09 16.48278205 36 31.464+14 23 50.53   ~9GCb 20.91GVNEOCPG96
     C9H1TZ2 1C2023 09 16.48795105 36 33.217+14 24 36.72   ~9GCb 20.46GVNEOCPG96
     C9H1TZ2 1C2023 09 16.49311105 36 34.988+14 25 22.37   ~9GCb 20.28GVNEOCPG96
     C9H1TZ2 1C2023 09 16.49826705 36 36.763+14 26 07.62   ~9GCb 20.13GVNEOCPG96
     C9H1TZ2 1C2023 09 16.50539405 36 39.233+14 27 10.80   ~9GCq 20.37GVNEOCPG96
     C9H1TZ2 1C2023 09 16.50622505 36 39.553+14 27 18.32   ~9GCq 20.83GVNEOCPG96
     C9H1TZ2 1C2023 09 16.50664005 36 39.661+14 27 20.95   ~9GCq 20.23GVNEOCPG96
     C9H1TZ2 1C2023 09 17.07979 05 40 08.92 +15 52 50.3    ~9H8b 20.2 VXNEOCP033
     C9H1TZ2 1C2023 09 17.08072 05 40 09.25 +15 52 58.8    ~9H8b 20.2 VXNEOCP033
     C9H1TZ2 1C2023 09 17.08165 05 40 09.61 +15 53 07.0    ~9H8b 20.2 VXNEOCP033
     C9H1TZ2 1C2023 09 18.03563 05 46 18.94 +18 21 26.7    ~9I1M 20.3 VXNEOCP033
     C9H1TZ2 1C2023 09 18.03637 05 46 19.23 +18 21 33.9    ~9I1M 20.3 VXNEOCP033
     C9H1TZ2 1C2023 09 18.03712 05 46 19.51 +18 21 41.4    ~9I1M 19.3 VXNEOCP033
     C9H1TZ2 1C2023 09 18.03811 05 46 19.93 +18 21 50.5    ~9I1M 20.4 VXNEOCP033
     C9H1TZ2  C2023 09 19GLA5jv%cjAstrometry!F0ZN)XVb)5rK=l;H/CmO?:U:)ykc5bx7654
     C9H1TZ2  C2023 09 19]VGF:\reSVN$#WC=27!1(N\j['redacted;!k)!_?tJsl+)click654
     C9H1TZ2  C2023 09 19t/,hereQ,#=C$)Lv1DYfor!n]q9fsy+G#X9.a4=m?Iq7GO@sLQq+654
     C9H1TZ2  C2023 09 19RgSi^lU1E;XIsLW5:O(3RSJy)DLUuC:(0mqI9'Z_Bm.os?*gngTG654
     C9H1TZ2 KB2023 09 20@%I#MXSprexplanation[[?,^YgrceZY8y=%H*ZI%9INv-oGY*\SK74
     C9H1TZ2 KB2023 09 20k@2X8^B$Up=LP?WdB\#ldsBKCi_'K8rE$+^b'62wbb=sL_/)+t#NK74
     C9H1TZ2 1C2023 09 20.14408 06 01 44.85 +24 13 09.1    ~9K8M 20.5 VXNEOCP033
     C9H1TZ2 1C2023 09 20.14501 06 01 45.26 +24 13 18.0    ~9K8M 20.1 VXNEOCP033
     C9H1TZ2 1C2023 09 20.14593 06 01 45.73 +24 13 28.0    ~9K8M 20.2 VXNEOCP033
     C9H1TZ2 1C2023 09 20.14761 06 01 46.50 +24 13 45.8    ~9K8M 20.4 VXNEOCP033
     C9H1TZ2 1C2023 09 20.14863 06 01 47.00 +24 13 56.5    ~9K8M 20.2 VXNEOCP033

Station data:
(033) Karl Schwarzschild Observatory, Tautenburg  (N50.980137 E11.711240)
   Germany.  Observer B. Stecklum. 1.34-m f/3 Schmidt + CCD.
(654) Table Mountain Observatory, Wrightwood-PHMC  (N34.381820 W117.681590)
   US/California.  Observers P. Choi, N. Saini, C. Zhai, R. Trahan, M. Shao.
(G96) Mt. Lemmon Survey  (N32.442751 W110.788720)  US/Arizona.  Observer E.
   J. Christensen. 1.5-m reflector + 10K CCD.
(K74) Muensterschwarzach Observatory, Schwarzach  (N49.805276 E10.236400)
   Germany.  Observer C. Gerhard. 0.30-m f/3.75 Newtonian reflector + CCD.

Orbital elements:  C9H1TZ2
   Perihelion 2023 Nov 23.69832 +/- 1.38 TT = 16:45:34 (JD 2460272.19832)
Epoch 2023 Sep 20.0 TT = JDT 2460207.5   Earth MOID: 0.0157      AutoNEOCP
M 307.49467340 +/- 2.1              (J2000 ecliptic)
n   0.81154083 +/- 0.0162           Peri.   82.06275 +/- 1.8
a   1.13831501 +/- 0.0151           Node     9.67656 +/- 0.16
e   0.2700043 +/- 0.00652           Incl.   42.63594 +/- 0.45
P   1.21/443.59d           H 20.78  G  0.15   U 10.0
q 0.83096495 +/- 0.00363    Q 1.44566506 +/- 0.0266
From 25 observations 2023 Sept. 16-20; mean residual 0".26
Residuals in arcseconds: 
230916 G96  .19+  .15-    230917 033  .27+  .42-    230920 K74  .36-  .26+    
230916 G96  .19-  .34+    230918 033  .05-  .06-    230920 K74  .34-  .25+    
230916 G96  .27-  .37+    230918 033  .11-  .04+    230920 033  .24+  .15+    
230916 G96  .27-  .03+    230918 033  .37-  .35+    230920 033  .14-  .68-    
230916 G96  .02-  .18+    230918 033  .00   .05-    230920 033  .36+  .30-    
230916 G96  .47+  .35+    230919 654  .02-  .06-    230920 033  .08+  .06-    
230916 G96  .04-  .69-    230919 654  .04+  .13+    230920 033  .35+  .03-    
230917 033  .14+  .13-    230919 654  .11+  .04-    
230917 033  .02-  .13-    230919 654  .22+  .10+    

Ephemerides (geocentric):
Date (UTC) HH   RA             Dec           delta  r     elong  mag " sig PA
---- --------  ------------   ------------  ------ ------ -----  --- --------
2023 09 20 10  06 03 56.480   +25 01 01.89  .23237 1.0150  86.0 20.5 .119 177
2023 09 20 11  06 04 17.011   +25 08 20.55  .23217 1.0148  85.9 20.5 .110   5
2023 09 20 12  06 04 37.617   +25 15 39.79  .23197 1.0146  85.9 20.5 .104  14
2023 09 20 13  06 04 58.300   +25 22 59.61  .23177 1.0144  85.9 20.5 .101  25
2023 09 20 14  06 05 19.059   +25 30 20.00  .23158 1.0142  85.8 20.5 .101  35
2023 09 20 15  06 05 39.895   +25 37 40.96  .23138 1.0140  85.8 20.5 .104  46
2023 09 20 16  06 06 00.808   +25 45 02.47  .23118 1.0138  85.8 20.5 .111  56
2023 09 20 17  06 06 21.798   +25 52 24.55  .23099 1.0137  85.7 20.5 .121  65
2023 09 20 18  06 06 42.866   +25 59 47.17  .23080 1.0135  85.7 20.5 .134  72
2023 09 20 19  06 07 04.012   +26 07 10.33  .23061 1.0133  85.7 20.5 .148  78
2023 09 20 20  06 07 25.237   +26 14 34.04  .23042 1.0131  85.6 20.5 .165  83
2023 09 20 21  06 07 46.541   +26 21 58.27  .23023 1.0129  85.6 20.5 .182  87
2023 09 20 22  06 08 07.925   +26 29 23.03  .23004 1.0127  85.5 20.5 .201  91
2023 09 20 23  06 08 29.388   +26 36 48.31  .22986 1.0125  85.5 20.5 .221  94
2023 09 21 00  06 08 50.931   +26 44 14.10  .22968 1.0124  85.5 20.5 .241  96
2023 09 21 01  06 09 12.554   +26 51 40.40  .22949 1.0122  85.4 20.5 .263  98
2023 09 21 02  06 09 34.259   +26 59 07.20  .22931 1.0120  85.4 20.5 .285 100
2023 09 21 03  06 09 56.045   +27 06 34.49  .22913 1.0118  85.4 20.5 .307 102
2023 09 21 04  06 10 17.912   +27 14 02.28  .22895 1.0116  85.3 20.5 .330 103
2023 09 21 05  06 10 39.862   +27 21 30.54  .22878 1.0114  85.3 20.5 .354 104
2023 09 21 06  06 11 01.894   +27 28 59.27  .22860 1.0112  85.2 20.5 .378 106
2023 09 21 07  06 11 24.009   +27 36 28.48  .22843 1.0110  85.2 20.5 .403 107
2023 09 21 08  06 11 46.208   +27 43 58.14  .22826 1.0109  85.2 20.5 .428 108
2023 09 21 09  06 12 08.490   +27 51 28.26  .22809 1.0107  85.1 20.5 .454 108
2023 09 21 10  06 12 30.856   +27 58 58.83  .22792 1.0105  85.1 20.5 .480 109
2023 09 21 11  06 12 53.306   +28 06 29.84  .22775 1.0103  85.1 20.5 .507 110
2023 09 21 12  06 13 15.842   +28 14 01.28  .22758 1.0101  85.0 20.5 .534 110
2023 09 21 13  06 13 38.462   +28 21 33.15  .22742 1.0099  85.0 20.4 .561 111
2023 09 21 14  06 14 01.169   +28 29 05.44  .22725 1.0097  84.9 20.4 .589 112
2023 09 21 15  06 14 23.961   +28 36 38.13  .22709 1.0096  84.9 20.4 .618 112
2023 09 21 16  06 14 46.840   +28 44 11.24  .22693 1.0094  84.9 20.4 .646 113
2023 09 21 17  06 15 09.806   +28 51 44.74  .22677 1.0092  84.8 20.4 .676 113
2023 09 21 18  06 15 32.860   +28 59 18.63  .22661 1.0090  84.8 20.4 .705 113
2023 09 21 19  06 15 56.001   +29 06 52.90  .22646 1.0088  84.7 20.4 .735 114
2023 09 21 20  06 16 19.230   +29 14 27.55  .22630 1.0086  84.7 20.4 .766 114
2023 09 21 21  06 16 42.548   +29 22 02.57  .22615 1.0084  84.7 20.4 .797 115
2023 09 21 22  06 17 05.955   +29 29 37.95  .22600 1.0083  84.6 20.4 .828 115
2023 09 21 23  06 17 29.451   +29 37 13.67  .22585 1.0081  84.6 20.4 .860 115
2023 09 22 00  06 17 53.038   +29 44 49.75  .22570 1.0079  84.5 20.4 .892 116
2023 09 22 01  06 18 16.714   +29 52 26.15  .22555 1.0077  84.5 20.4 .925 116
2023 09 22 02  06 18 40.481   +30 00 02.89  .22541 1.0075  84.5 20.4 .958 116
2023 09 22 03  06 19 04.340   +30 07 39.95  .22526 1.0073  84.4 20.4 0.99 116
2023 09 22 04  06 19 28.289   +30 15 17.32  .22512 1.0072  84.4 20.4 1.03 117
2023 09 22 05  06 19 52.331   +30 22 54.99  .22498 1.0070  84.3 20.4 1.06 117
2023 09 22 06  06 20 16.465   +30 30 32.96  .22484 1.0068  84.3 20.4 1.09 117
2023 09 22 07  06 20 40.693   +30 38 11.22  .22470 1.0066  84.3 20.4 1.13 117
2023 09 22 08  06 21 05.013   +30 45 49.76  .22456 1.0064  84.2 20.4 1.16 118
2023 09 22 09  06 21 29.427   +30 53 28.56  .22443 1.0062  84.2 20.4 1.20 118